KG7TUZ Weather Reports


time (UTC)temp
F
wind
direction
speed
knots
gust
knots
rain 1hr
in
rain 24hr
in
rain mn
in
humidity
%
barometer
mb
20260507160040 81 222 0.0 1.7 0.00 0.00 0.00 14 1012.5
20260507155558 81 223 0.0 1.7 0.00 0.00 0.00 15 1012.5
20260507155019 80 223 0.0 1.7 0.00 0.00 0.00 16 1012.6
20260507154544 80 223 0.0 1.7 0.00 0.00 0.00 15 1012.6
20260507154102 80 223 0.0 2.6 0.00 0.00 0.00 16 1012.6
20260507153522 79 207 0.0 2.6 0.00 0.00 0.00 14 1012.8
20260507153101 78 196 0.9 3.5 0.00 0.00 0.00 16 1012.7
20260507152513 78 181 0.0 3.5 0.00 0.00 0.00 17 1012.7
20260507152035 77 142 0.0 1.7 0.00 0.00 0.00 17 1012.7
20260507151600 77 141 0.0 1.7 0.00 0.00 0.00 16 1012.8
20260507151016 77 141 0.0 1.7 0.00 0.00 0.00 17 1012.8
20260507150537 76 141 0.0 2.6 0.00 0.00 0.00 20 1012.8
20260507150007 76 141 0.0 2.6 0.00 0.00 0.00 20 1012.8
20260507145528 75 132 0.0 0.9 0.00 0.00 0.00 20 1012.9
20260507145049 75 132 0.0 0.9 0.00 0.00 0.00 20 1013.0
20260507144526 74 126 0.0 0.9 0.00 0.00 0.00 23 1012.9
20260507144040 74 126 0.0 0.9 0.00 0.00 0.00 23 1013.0
20260507143601 73 126 0.0 0.9 0.00 0.00 0.00 22 1013.0
20260507143022 72 126 0.0 0.9 0.00 0.00 0.00 22 1012.9
20260507142544 72 126 0.0 0.9 0.00 0.00 0.00 25 1012.9
20260507142002 71 69 0.0 0.0 0.00 0.00 0.00 26 1012.8
20260507141524 71 69 0.0 0.0 0.00 0.00 0.00 28 1012.8
20260507141047 71 69 0.0 0.9 0.00 0.00 0.00 29 1012.8
20260507140518 70 68 0.0 0.9 0.00 0.00 0.00 28 1012.8
20260507140038 70 38 0.0 0.0 0.00 0.00 0.00 26 1012.7
20260507135559 69 38 0.0 0.0 0.00 0.00 0.00 26 1012.8
20260507135021 68 19 0.0 0.0 0.00 0.00 0.00 29 1012.7
20260507134540 67 19 0.0 0.0 0.00 0.00 0.00 33 1012.6
20260507134009 66 19 0.0 0.0 0.00 0.00 0.00 34 1012.7
20260507133531 66 19 0.0 0.0 0.00 0.00 0.00 35 1012.7
20260507133053 65 19 0.0 0.0 0.00 0.00 0.00 37 1012.6
20260507132504 64 19 0.0 0.9 0.00 0.00 0.00 34 1012.5
20260507132024 63 23 0.0 0.9 0.00 0.00 0.00 32 1012.5
20260507131546 61 9 0.0 0.0 0.00 0.00 0.00 35 1012.4
20260507131017 59 346 0.0 0.9 0.00 0.00 0.00 39 1012.4
20260507130537 58 63 0.0 0.9 0.00 0.00 0.00 43 1012.4
20260507130006 58 65 0.0 0.0 0.00 0.00 0.00 46 1012.3
20260507125530 58 65 0.0 0.0 0.00 0.00 0.00 48 1012.3
20260507125049 58 67 0.0 0.0 0.00 0.00 0.00 46 1012.4
20260507124509 59 67 0.0 0.0 0.00 0.00 0.00 45 1012.4
20260507124031 59 67 0.0 0.0 0.00 0.00 0.00 44 1012.3
20260507123552 60 67 0.0 0.0 0.00 0.00 0.00 43 1012.3
20260507123012 60 67 0.0 0.0 0.00 0.00 0.00 45 1012.3
20260507122532 60 67 0.0 0.0 0.00 0.00 0.00 43 1012.3
20260507122053 61 67 0.0 0.0 0.00 0.00 0.00 43 1012.4
20260507121512 61 67 0.0 0.0 0.00 0.00 0.00 42 1012.4
20260507121047 61 67 0.0 0.0 0.00 0.00 0.00 39 1012.3
20260507120602 60 67 0.0 0.0 0.00 0.00 0.00 40 1012.4
20260507120035 60 67 0.0 0.0 0.00 0.00 0.00 40 1012.4
20260507115548 60 67 0.0 0.0 0.00 0.00 0.00 40 1012.4
20260507115005 60 67 0.0 0.0 0.00 0.00 0.00 46 1012.5
20260507114521 60 67 0.0 0.0 0.00 0.00 0.00 45 1012.5
20260507114036 60 67 0.0 0.0 0.00 0.00 0.00 43 1012.5
20260507113547 60 67 0.0 0.0 0.00 0.00 0.00 42 1012.6
20260507113002 60 67 0.0 0.0 0.00 0.00 0.00 41 1012.7
20260507112531 61 67 0.0 0.0 0.00 0.00 0.00 43 1012.7
20260507112052 60 67 0.0 0.0 0.00 0.00 0.00 41 1012.8
20260507111518 60 68 0.0 0.0 0.00 0.00 0.00 40 1012.8
20260507111035 60 68 0.0 0.0 0.00 0.00 0.00 42 1012.8
20260507110555 61 68 0.0 0.0 0.00 0.00 0.00 41 1012.7
20260507110025 61 69 0.0 0.0 0.00 0.00 0.00 42 1012.8
20260507105540 60 69 0.0 0.0 0.00 0.00 0.00 41 1012.8
20260507105006 60 69 0.0 0.0 0.00 0.00 0.00 44 1012.9
20260507104527 60 69 0.0 0.0 0.00 0.00 0.00 43 1012.9
20260507104046 61 69 0.0 0.0 0.00 0.00 0.00 43 1012.9
20260507103503 61 69 0.0 0.0 0.00 0.00 0.00 44 1012.9
20260507103032 61 69 0.0 0.0 0.00 0.00 0.00 42 1013.0
20260507102549 61 69 0.0 0.0 0.00 0.00 0.00 40 1013.0
20260507102007 61 69 0.0 0.0 0.00 0.00 0.00 43 1013.1
20260507101540 61 69 0.0 0.0 0.00 0.00 0.00 42 1013.2
20260507101053 62 69 0.0 0.0 0.00 0.00 0.00 40 1013.2
20260507100520 62 69 0.0 0.0 0.00 0.00 0.00 39 1013.3
20260507100050 62 69 0.0 0.0 0.00 0.00 0.00 39 1013.2
20260507095506 62 69 0.0 0.0 0.00 0.00 0.00 39 1013.2
20260507095025 62 69 0.0 0.9 0.00 0.00 0.00 39 1013.2
20260507094544 62 69 0.0 0.9 0.00 0.00 0.00 40 1013.2
20260507094102 61 76 0.0 0.9 0.00 0.00 0.00 40 1013.2
20260507093520 61 115 0.0 0.9 0.00 0.00 0.00 40 1013.2
20260507093047 61 130 0.0 0.0 0.00 0.00 0.00 39 1013.3
20260507092504 61 133 0.0 0.0 0.00 0.00 0.00 39 1013.3
20260507092033 61 133 0.0 0.0 0.00 0.00 0.00 40 1013.3
20260507091553 60 134 0.0 0.0 0.00 0.00 0.00 40 1013.3
20260507091006 61 134 0.0 0.0 0.00 0.00 0.00 42 1013.4
20260507090525 61 134 0.0 0.0 0.00 0.00 0.00 41 1013.4
20260507090048 61 134 0.0 0.0 0.00 0.00 0.00 44 1013.5
20260507085509 61 134 0.0 0.0 0.00 0.00 0.00 44 1013.6
20260507085029 61 134 0.0 0.0 0.00 0.00 0.00 43 1013.6
20260507084600 61 134 0.0 0.0 0.00 0.00 0.00 40 1013.6
20260507084013 62 134 0.0 0.0 0.00 0.00 0.00 43 1013.5
20260507083542 61 134 0.0 0.0 0.00 0.00 0.00 42 1013.5
20260507083012 61 134 0.0 0.0 0.00 0.00 0.00 44 1013.5
20260507082526 61 134 0.0 0.0 0.00 0.00 0.00 40 1013.6
20260507082049 61 134 0.0 0.0 0.00 0.00 0.00 40 1013.6
20260507081503 61 134 0.0 0.0 0.00 0.00 0.00 43 1013.7
20260507081033 61 134 0.0 0.0 0.00 0.00 0.00 42 1013.7
20260507080550 61 134 0.0 0.0 0.00 0.00 0.00 40 1013.7
20260507080018 61 134 0.0 0.0 0.00 0.00 0.00 41 1013.7
20260507075540 61 134 0.0 0.0 0.00 0.00 0.00 40 1013.9
20260507075055 61 134 0.0 0.0 0.00 0.00 0.00 41 1013.9
20260507074522 62 134 0.0 0.0 0.00 0.00 0.00 41 1013.8
20260507074041 62 134 0.0 0.0 0.00 0.00 0.00 41 1013.9
20260507073507 62 134 0.0 0.0 0.00 0.00 0.00 43 1014.0
20260507073030 62 233 0.0 0.0 0.00 0.00 0.00 42 1014.0
20260507072556 62 233 0.0 0.0 0.00 0.00 0.00 41 1013.9
20260507072013 62 233 0.0 0.0 0.00 0.00 0.00 41 1013.9
20260507071543 62 233 0.0 0.0 0.00 0.00 0.00 41 1013.9
20260507071009 62 233 0.0 0.0 0.00 0.00 0.00 41 1013.9
20260507070538 62 233 0.0 0.0 0.00 0.00 0.00 43 1014.0
20260507065513 62 234 0.0 0.0 0.00 0.00 0.00 40 1014.0
20260507065033 62 233 0.0 0.0 0.00 0.00 0.00 44 1014.1
20260507064550 62 233 0.0 0.0 0.00 0.00 0.00 43 1014.0
20260507064017 62 233 0.0 0.0 0.00 0.00 0.00 43 1014.0
20260507063535 63 233 0.0 0.0 0.00 0.00 0.00 44 1014.0
20260507063058 63 233 0.0 0.0 0.00 0.00 0.00 44 1014.1
20260507062512 63 233 0.0 0.0 0.00 0.00 0.00 42 1014.0
20260507062042 63 233 0.0 0.0 0.00 0.00 0.00 41 1014.0
20260507061508 63 233 0.0 0.0 0.00 0.00 0.00 43 1014.0
20260507061037 63 233 0.0 0.0 0.00 0.00 0.00 42 1014.0
20260507060557 63 233 0.0 0.0 0.00 0.00 0.00 41 1014.0
20260507060019 64 234 0.0 0.0 0.00 0.00 0.00 40 1013.9
20260507055543 64 234 0.0 0.0 0.00 0.00 0.00 40 1013.9
20260507055101 64 234 0.0 0.0 0.00 0.00 0.00 40 1014.0
20260507054534 64 234 0.0 0.0 0.00 0.00 0.00 40 1013.9
20260507054046 64 234 0.0 0.0 0.00 0.00 0.00 42 1014.0
20260507053503 64 234 0.0 0.0 0.00 0.00 0.00 39 1013.9
20260507053022 65 234 0.0 0.0 0.00 0.00 0.00 39 1013.8
20260507052542 65 234 0.0 0.0 0.00 0.00 0.00 41 1013.9
20260507052007 65 234 0.0 0.0 0.00 0.00 0.00 38 1013.9
20260507051527 66 234 0.0 0.0 0.00 0.00 0.00 39 1013.9
20260507051059 66 234 0.0 0.0 0.00 0.00 0.00 37 1013.9
20260507050511 66 234 0.0 0.0 0.00 0.00 0.00 37 1013.9
20260507050041 66 234 0.0 0.0 0.00 0.00 0.00 39 1013.8
20260507045606 66 234 0.0 0.0 0.00 0.00 0.00 38 1013.9
20260507045017 67 234 0.0 0.0 0.00 0.00 0.00 37 1013.9
20260507044539 67 234 0.0 0.0 0.00 0.00 0.00 40 1013.7
20260507044055 67 234 0.0 0.0 0.00 0.00 0.00 38 1013.6
20260507043520 68 234 0.0 0.0 0.00 0.00 0.00 38 1013.7
20260507043041 68 234 0.0 0.0 0.00 0.00 0.00 36 1013.6
20260507042504 68 234 0.0 0.0 0.00 0.00 0.00 37 1013.6
20260507042024 69 234 0.0 0.0 0.00 0.00 0.00 38 1013.5
20260507041546 69 234 0.0 0.0 0.00 0.00 0.00 35 1013.5
20260507041103 70 234 0.0 0.0 0.00 0.00 0.00 37 1013.4
20260507040529 70 234 0.0 0.0 0.00 0.00 0.00 33 1013.3
20260507040048 70 234 0.0 0.0 0.00 0.00 0.00 32 1013.2
20260507035505 71 234 0.0 0.0 0.00 0.00 0.00 33 1013.2
20260507035022 71 234 0.0 0.0 0.00 0.00 0.00 31 1013.2
20260507034544 71 234 0.0 0.0 0.00 0.00 0.00 31 1013.2
20260507034059 72 234 0.0 0.0 0.00 0.00 0.00 28 1013.0
20260507033518 72 234 0.0 0.0 0.00 0.00 0.00 28 1013.0
20260507033046 72 234 0.0 0.0 0.00 0.00 0.00 28 1012.9
20260507032503 73 234 0.0 0.0 0.00 0.00 0.00 27 1012.9
20260507032031 73 234 0.0 0.0 0.00 0.00 0.00 28 1012.8
20260507031550 73 234 0.0 0.0 0.00 0.00 0.00 27 1012.7
20260507031012 73 234 0.0 0.0 0.00 0.00 0.00 27 1012.6
20260507030526 74 234 0.0 0.0 0.00 0.00 0.00 27 1012.5
20260507030044 74 234 0.0 0.0 0.00 0.00 0.00 26 1012.4
20260507025510 74 234 0.0 0.0 0.00 0.00 0.00 27 1012.4
20260507025030 75 234 0.0 0.0 0.00 0.00 0.00 26 1012.3
20260507024623 75 234 0.0 0.0 0.00 0.00 0.00 26 1012.3
20260507024021 75 234 0.0 0.0 0.00 0.00 0.00 26 1012.2
20260507023546 76 234 0.0 0.0 0.00 0.00 0.00 25 1012.2
20260507023008 76 234 0.0 0.0 0.00 0.00 0.00 26 1012.1
20260507022527 76 234 0.0 0.9 0.00 0.00 0.00 24 1012.1
20260507022045 76 234 0.0 0.9 0.00 0.00 0.00 25 1012.0
20260507021501 77 225 0.0 0.9 0.00 0.00 0.00 24 1012.0
20260507021030 77 224 0.0 0.9 0.00 0.00 0.00 24 1012.0
20260507020549 77 229 0.0 0.9 0.00 0.00 0.00 24 1012.0
20260507020016 77 225 0.0 0.9 0.00 0.00 0.00 24 1011.9
20260507015533 78 209 0.0 1.7 0.00 0.00 0.00 25 1011.9
20260507015053 78 200 0.0 3.5 0.00 0.00 0.00 24 1011.9
20260507014516 78 240 0.0 7.0 0.00 0.00 0.00 24 1011.8
20260507014031 78 226 2.6 7.0 0.00 0.00 0.00 25 1011.8
20260507013550 79 217 0.9 4.3 0.00 0.00 0.00 23 1011.7
20260507013022 79 215 0.0 2.6 0.00 0.00 0.00 23 1011.7
20260507012537 79 199 0.0 6.1 0.00 0.00 0.00 23 1011.7
20260507012055 79 138 0.9 6.1 0.00 0.00 0.00 23 1011.8
20260507011524 79 193 1.7 6.1 0.00 0.00 0.00 24 1011.8
20260507011042 79 209 0.0 2.6 0.00 0.00 0.00 23 1011.7
20260507010510 79 195 0.0 4.3 0.00 0.00 0.00 23 1011.7
20260507010027 80 153 0.9 4.3 0.00 0.00 0.00 23 1011.7
20260507005557 80 230 0.0 5.2 0.00 0.00 0.00 24 1011.7
20260507005013 80 200 1.7 5.2 0.00 0.00 0.00 23 1011.5
20260507004544 80 280 1.7 5.2 0.00 0.00 0.00 23 1011.7
20260507004101 80 211 0.9 7.0 0.00 0.00 0.00 23 1011.6
20260507003527 80 212 1.7 4.3 0.00 0.00 0.00 23 1011.6
20260507003047 81 180 0.9 4.3 0.00 0.00 0.00 23 1011.5
20260507002504 81 199 0.9 6.1 0.00 0.00 0.00 22 1011.5
20260507002033 81 248 1.7 6.1 0.00 0.00 0.00 23 1011.5
20260507001554 81 274 0.9 4.3 0.00 0.00 0.00 21 1011.5
20260507001016 81 253 0.0 5.2 0.00 0.00 0.00 23 1011.5
20260507000535 81 250 0.0 3.5 0.00 0.00 0.00 23 1011.6
20260507000055 81 262 0.9 5.2 0.00 0.00 0.00 22 1011.6
20260506235553 81 180 0.9 5.2 0.00 0.00 0.00 22 1011.6
20260506235010 81 270 1.7 6.1 0.00 0.00 0.00 24 1011.6
20260506234535 81 173 0.9 4.3 0.00 0.00 0.00 23 1011.5
20260506234050 81 182 0.0 5.2 0.00 0.00 0.00 22 1011.6
20260506233505 81 196 0.9 5.2 0.00 0.00 0.00 22 1011.7
20260506233034 81 213 0.9 5.2 0.00 0.00 0.00 23 1011.7
20260506232553 81 156 0.9 5.2 0.00 0.00 0.00 23 1011.6
20260506232009 81 210 2.6 7.0 0.00 0.00 0.00 22 1011.8
20260506231534 81 190 1.7 5.2 0.00 0.00 0.00 22 1011.7
20260506231048 81 195 0.0 5.2 0.00 0.00 0.00 22 1011.9
20260506230558 81 194 0.0 5.2 0.00 0.00 0.00 23 1011.9
20260506230012 81 250 0.0 5.2 0.00 0.00 0.00 22 1012.0
20260506225542 81 265 0.0 5.2 0.00 0.00 0.00 23 1012.0
20260506225104 80 206 1.7 5.2 0.00 0.00 0.00 23 1012.1
20260506224528 80 209 0.9 9.6 0.00 0.00 0.00 22 1012.1
20260506224047 81 165 2.6 9.6 0.00 0.00 0.00 22 1012.2
20260506223504 81 157 0.9 4.3 0.00 0.00 0.00 22 1012.3
20260506223037 82 165 0.0 7.0 0.00 0.00 0.00 24 1012.4
20260506222543 82 209 0.9 9.6 0.00 0.00 0.00 23 1012.5
20260506222009 81 259 2.6 9.6 0.00 0.00 0.00 22 1012.4
20260506221529 81 240 1.7 6.1 0.00 0.00 0.00 23 1012.5
20260506221057 81 257 0.0 3.5 0.00 0.00 0.00 22 1012.6
20260506220518 81 180 0.9 6.1 0.00 0.00 0.00 22 1012.7
20260506220044 81 283 1.7 6.1 0.00 0.00 0.00 22 1012.8
20260506215603 81 199 1.7 7.0 0.00 0.00 0.00 23 1012.8
20260506215018 80 202 0.0 5.2 0.00 0.00 0.00 23 1012.8
20260506214537 80 190 1.7 6.1 0.00 0.00 0.00 22 1012.9
20260506214056 81 242 0.9 6.1 0.00 0.00 0.00 22 1013.0
20260506213525 80 306 1.7 7.0 0.00 0.00 0.00 22 1013.0
20260506213100 80 203 1.7 7.0 0.00 0.00 0.00 23 1013.1
20260506212507 80 184 1.7 4.3 0.00 0.00 0.00 22 1013.3
20260506212026 81 197 0.0 8.7 0.00 0.00 0.00 23 1013.3
20260506211602 80 267 2.6 8.7 0.00 0.00 0.00 24 1013.3
20260506211102 80 181 0.9 7.8 0.00 0.00 0.00 23 1013.4
20260506210517 81 269 1.7 7.8 0.00 0.00 0.00 22 1013.5
20260506210037 80 207 1.7 7.8 0.00 0.00 0.00 24 1013.5
20260506205554 79 227 0.0 4.3 0.00 0.00 0.00 25 1013.6
20260506205021 79 175 0.9 7.0 0.00 0.00 0.00 25 1013.7
20260506204547 79 169 1.7 7.8 0.00 0.00 0.00 25 1013.7
20260506204055 78 223 2.6 7.8 0.00 0.00 0.00 24 1013.7
20260506203521 79 195 0.9 5.2 0.00 0.00 0.00 25 1013.9
20260506203046 79 96 0.0 5.2 0.00 0.00 0.00 25 1013.9
20260506202506 79 134 0.9 7.8 0.00 0.00 0.00 24 1014.0
20260506202024 79 246 2.6 8.7 0.00 0.00 0.00 25 1014.0
20260506201555 78 234 1.7 6.1 0.00 0.00 0.00 25 1014.0
20260506201010 78 162 0.9 5.2 0.00 0.00 0.00 25 1014.1
20260506200538 78 231 0.9 4.3 0.00 0.00 0.00 26 1014.1
20260506195513 78 157 1.7 8.7 0.00 0.00 0.00 25 1014.3
20260506195042 78 236 1.7 8.7 0.00 0.00 0.00 26 1014.3
20260506194628 77 281 0.9 6.1 0.00 0.00 0.00 27 1014.5
20260506194028 77 170 0.0 5.2 0.00 0.00 0.00 25 1014.5
20260506193552 77 174 1.7 5.2 0.00 0.00 0.00 25 1014.5
20260506193015 76 218 0.9 4.3 0.00 0.00 0.00 27 1014.5
20260506192538 76 78 0.0 4.3 0.00 0.00 0.00 27 1014.5
20260506192055 77 180 1.7 4.3 0.00 0.00 0.00 25 1014.6
20260506191511 77 193 0.0 6.1 0.00 0.00 0.00 26 1014.7
20260506191040 77 310 0.9 7.8 0.00 0.00 0.00 26 1014.7
20260506190600 77 226 2.6 7.8 0.00 0.00 0.00 27 1014.8
20260506190018 76 205 0.9 4.3 0.00 0.00 0.00 27 1014.7
20260506185535 75 131 0.9 4.3 0.00 0.00 0.00 27 1014.8
20260506185057 75 274 0.9 7.0 0.00 0.00 0.00 30 1014.9
20260506184521 74 164 2.6 7.8 0.00 0.00 0.00 28 1015.0
20260506184040 74 192 0.9 7.8 0.00 0.00 0.00 29 1015.1
20260506183559 74 161 2.6 7.8 0.00 0.00 0.00 28 1015.1
20260506183026 75 138 2.6 7.0 0.00 0.00 0.00 28 1015.2
20260506182543 75 157 0.0 4.3 0.00 0.00 0.00 28 1015.2
20260506182104 75 158 0.0 6.1 0.00 0.00 0.00 28 1015.2
20260506181520 74 213 0.9 6.1 0.00 0.00 0.00 28 1015.3
20260506181038 74 132 0.9 4.3 0.00 0.00 0.00 28 1015.3
20260506180557 74 144 0.9 5.2 0.00 0.00 0.00 28 1015.3
20260506180015 74 153 2.6 5.2 0.00 0.00 0.00 28 1015.3
20260506175533 74 169 0.0 7.0 0.00 0.00 0.00 29 1015.5
20260506175050 74 279 1.7 7.0 0.00 0.00 0.00 29 1015.4
20260506174510 74 167 0.0 5.2 0.00 0.00 0.00 29 1015.5
20260506174037 74 227 0.9 5.2 0.00 0.00 0.00 29 1015.6
20260506173557 74 184 0.0 2.6 0.00 0.00 0.00 29 1015.5
20260506173023 73 242 0.0 3.5 0.00 0.00 0.00 30 1015.5
20260506172544 73 246 0.9 3.5 0.00 0.00 0.00 31 1015.6
20260506172101 73 182 0.0 5.2 0.00 0.00 0.00 32 1015.6
20260506171530 73 248 0.0 5.2 0.00 0.00 0.00 30 1015.6
20260506171050 73 268 0.0 3.5 0.00 0.00 0.00 32 1015.5
20260506170510 72 252 0.0 2.6 0.00 0.00 0.00 33 1015.5
20260506170033 72 216 0.9 2.6 0.00 0.00 0.00 33 1015.5
20260506165550 72 214 0.9 3.5 0.00 0.00 0.00 33 1015.5
20260506165015 71 242 0.9 3.5 0.00 0.00 0.00 34 1015.4
20260506164534 71 205 0.0 3.5 0.00 0.00 0.00 34 1015.4
20260506164054 70 204 0.9 3.5 0.00 0.00 0.00 35 1015.4
20260506163510 69 241 0.0 1.7 0.00 0.00 0.00 35 1015.3
20260506163051 69 242 0.0 3.5 0.00 0.00 0.00 35 1015.3
20260506162557 69 245 0.0 3.5 0.00 0.00 0.00 36 1015.4
20260506162028 68 175 0.0 3.5 0.00 0.00 0.00 36 1015.3
20260506161544 68 179 0.0 3.5 0.00 0.00 0.00 36 1015.3
20260506161102 68 242 0.0 2.6 0.00 0.00 0.00 37 1015.3
20260506160522 67 111 0.0 2.6 0.00 0.00 0.00 38 1015.3